Vertical_Velocity
-2 -1 -3 -1 0 0 -0 1 3 3 -3 1 -1 1 -3 1 1 -3 -2 -3 -1 0 -2 -1 -2 0 -0 1 -17 -0 10 2 6 -1 5 -2 13 21 -6 -3 3 -5 13 4 2 8 -3
-1 -2 -1 -0 -2 -2 0 -3 -2 -6 -0 -2 0 2 4 1 2 -1 -2 -0 -2 -1 1 -3 -1 5 1 -17 8 10 2 -6 2 -3 -5 5 -2 5 9 -10 -3 4 -5 0 4 15 -6
-2 -3 -1 -2 -2 0 -2 -1 -5 3 3 -1 0 1 -2 -5 3 3 -1 0 -0 -1 2 -1 -0 7 -9 3 2 -4 -3 1 7 -4 -6 -8 15 2 0 9 14 -3 2 -1 2 3 4
-3 -2 -2 -2 -1 -3 -1 -2 3 3 -6 -5 -2 2 0 -4 -6 2 -0 1 -2 -1 -2 1 0 4 -16 16 2 -7 -2 2 3 -2 11 7 1 14 -3 0 -5 -1 14 4 -6 -1 -5
-2 -3 -2 -1 -2 -3 1 1 -3 -1 2 -3 4 -1 -5 3 0 3 -2 -1 1 -2 -1 3 -0 -1 -1 -1 -4 9 1 2 -2 -2 -3 -3 20 1 -2 13 13 8 -13 -2 6 -0 2
-2 -2 -2 -1 -2 1 -1 1 2 -2 -4 2 -5 -1 3 -0 -2 1 -1 -4 0 -1 -1 -3 2 -2 2 7 4 -4 2 21 -4 4 1 -4 1 6 -1 20 -25 -11 15 11 2 5 12
-2 -0 -2 -1 -3 -2 0 -1 -0 1 5 -0 5 -0 0 -6 0 -4 5 -1 4 2 -2 -7 -3 9 7 -3 5 5 1 -2 -3 0 1 -7 -9 -22 -8 -1 3 0 2 -9 -7 -3 -1
0 0 -3 -3 -1 -1 -1 -0 -3 -1 -1 2 -4 1 -3 -4 -4 -3 3 1 -3 -3 -2 -1 -2 -4 3 8 3 4 2 1 1 1 -3 -2 -25 18 4 14 6 2 -4 -9 3 -4 -2
0 -3 -4 -1 -4 -1 -3 -2 2 -0 -1 -3 0 -3 -4 -1 -2 -0 -0 -3 2 -4 -2 -7 -2 -0 2 -3 22 5 8 3 2 -2 -5 5 -4 6 8 3 1 -4 0 -1 -4 -4 11
-2 -2 -3 -4 -2 -2 -1 1 0 0 -0 -3 -0 2 -0 0 -3 -3 2 -6 1 -5 -1 -7 -4 -0 -0 -2 -10 -3 3 1 -3 1 6 -0 0 1 -5 -7 2 -9 5 1 18 8 -5
-1 -2 -4 -3 -2 -3 -1 -3 3 -0 1 -2 2 -1 -8 -3 0 -6 -2 -5 -4 -6 -6 -1 14 -4 1 -3 3 -3 9 2 -4 3 -4 -2 1 -2 -2 -7 -2 -9 4 4 9 -7 6
-1 -3 -2 -2 -3 0 1 -2 -0 -1 -2 -6 4 -2 1 5 -1 -5 -5 -0 -3 -5 -2 4 14 -3 1 1 -3 -1 -8 -3 -0 -3 3 -3 0 3 5 -0 3 1 -2 8 5 7 6
-1 -3 -3 -2 -2 1 -2 -2 -5 1 -3 2 -1 1 -2 2 -2 6 -9 -2 -2 -5 1 0 9 -1 3 -2 -1 -1 -3 -2 -4 4 -6 5 -8 -1 1 7 3 1 14 5 4 5 -7
-3 -3 -4 -1 -1 -2 -4 -4 2 -3 0 1 3 3 1 7 0 -0 -2 -5 -9 3 -4 2 10 14 -9 -10 11 -11 1 -1 -3 -1 19 -4 2 -8 -9 -9 -30 -7 -0 -9 -4 -2 -2
-2 -3 -1 -1 -2 -3 -4 -1 -0 -2 -2 -4 2 1 -0 0 1 -2 6 -9 -3 2 -0 4 3 9 6 4 7 2 -3 -20 -9 -3 5 -2 6 -2 2 6 3 -8 5 3 -7 3 -3
-4 -3 -0 -1 -2 -1 -1 -6 -2 4 1 2 0 2 1 6 0 3 4 -6 -3 3 -3 -2 4 12 9 14 6 2 2 27 -3 -1 6 11 1 38 8 5 4 -8 -1 -0 -2 -4 -0
-3 -1 -1 -2 -4 1 -2 -3 -5 -2 2 3 -3 -3 -2 -3 3 4 -4 1 -5 1 -3 -2 2 0 11 13 4 9 6 10 20 -2 8 13 3 21 7 -4 -7 1 -5 -3 -5 -1 -5
-3 -2 -2 -2 -2 -1 -2 -4 -2 -7 3 -0 -0 -1 4 2 1 -2 -0 -5 0 -8 3 -3 -3 2 7 11 4 1 2 -2 -7 2 3 6 -6 -2 -7 -8 2 -2 -3 -4 -4 -2 0
-5 -4 -4 -2 -2 -4 -4 -2 -4 -7 -10 -6 1 -8 -4 -3 -3 -4 1 6 -2 -2 -4 0 1 4 7 4 1 1 1 3 7 5 -4 4 5 -2 8 9 3 -1 -1 2 -2 -0 -2
-5 -7 -3 1 1 -6 -2 -4 -2 -2 -4 -5 -9 -3 -3 -1 -0 -3 -2 5 -1 1 -0 3 4 0 -2 2 1 2 2 1 4 6 -1 -12 -5 0 -4 -4 -18 -4 -0 3 3 -3 1
-5 -6 -3 -5 -3 -5 -1 -1 -1 -6 -2 -6 -6 -1 0 -2 1 -1 -1 -6 2 -3 2 3 3 -3 1 2 -1 -4 1 3 1 1 2 3 -3 -4 -1 -1 4 1 0 -1 -4 0 -8
-3 -6 -4 -6 -6 -1 -5 -4 -6 -2 -2 6 3 -3 1 -3 3 6 -3 0 -4 3 -7 -6 5 -3 -2 1 0 1 1 -2 -0 -1 1 3 -1 3 -4 0 5 2 5 6 5 1 -13
-5 -2 -7 -5 -6 -7 -6 -3 -2 -3 -3 -6 4 0 -7 2 3 4 -1 -1 -1 1 5 -2 1 1 1 -1 1 1 0 0 1 1 1 -1 -0 1 1 2 -1 1 -4 -2 -0 -1 5
-2 -4 -6 -4 -7 -10 -4 -3 -1 -9 -7 -7 -9 -2 1 -1 0 -0 7 -2 0 -1 -1 -4 -2 -3 1 -1 1 3 -1 1 1 2 -1 -1 -2 -0 -1 1 -3 -0 1 3 3 4 3
-4 -5 -7 -5 -5 -3 -4 -4 0 0 -2 3 1 4 3 -2 -3 3 6 -2 3 -2 12 -0 -1 -0 0 -0 1 -2 -1 -2 -2 1 3 2 -0 -2 -2 1 1 -0 -1 -4 -5 -3 2
-2 -9 -9 -2 -9 -3 0 -4 -6 -1 2 5 -10 -1 -4 -3 -9 -9 -1 1 -2 -2 0 5 -2 -3 0 -1 -1 -1 -1 5 -1 -4 -3 -0 0 -2 -1 -0 -1 0 1 1 1 1 -0
-7 -7 -3 -11 -7 -6 -6 -3 -6 2 -3 -8 2 -3 -9 -1 1 2 -5 1 -1 2 -2 -1 1 -1 0 1 -0 1 1 -1 1 2 -1 -3 -2 -1 0 0 -0 -1 1 4 -0 3 -0
-9 -9 -0 -5 -8 -5 -3 -5 -4 -4 1 3 -5 8 1 -4 -3 4 -0 -5 1 -1 -0 3 5 -1 0 1 -1 0 0 1 -1 0 1 0 0 -2 -1 0 -2 -0 0 -2 -6 -1 -0
-6 -13 -4 -3 -2 -3 -7 1 -7 -3 -13 5 -5 -12 -7 -12 6 -4 7 -1 -5 5 -5 0 3 7 0 -1 0 -1 -2 -1 1 -0 -0 -0 0 1 2 1 -2 -0 2 1 2 2 -1
Height
3124 3119 3113 3106 3100 3092 3085 3077 3071 3065 3058 3051 3045 3041 3036 3031 3026 3023 3020 3017 3014 3012 3010 3010 3011 3010 3009 3009 3008 3013 3013 3014 3016 3024 3032 3039 3045 3051 3054 3060 3068 3066 3074 3080 3085 3092 3094
3121 3116 3110 3103 3096 3089 3081 3073 3066 3061 3054 3048 3043 3038 3031 3026 3022 3018 3014 3011 3009 3007 3006 3005 3005 3003 3003 3003 3008 3009 3010 3010 3013 3019 3024 3032 3037 3045 3052 3056 3059 3063 3071 3077 3082 3088 3091
3119 3113 3107 3101 3094 3086 3078 3071 3064 3058 3051 3045 3040 3033 3028 3024 3019 3015 3011 3008 3005 3003 3001 2999 2999 2998 2997 3000 3002 3002 3005 3007 3012 3015 3020 3027 3033 3041 3046 3052 3059 3064 3071 3075 3078 3084 3086
3116 3111 3104 3098 3091 3083 3075 3067 3062 3056 3050 3042 3035 3029 3024 3019 3015 3012 3008 3005 3001 2999 2997 2996 2994 2994 2991 2996 2996 2999 3002 3005 3008 3012 3016 3022 3029 3035 3041 3049 3054 3062 3069 3071 3074 3080 3084
3114 3109 3102 3096 3088 3082 3074 3066 3060 3053 3045 3039 3032 3026 3021 3016 3012 3009 3005 3002 2997 2994 2992 2991 2991 2989 2989 2992 2994 2998 3002 3004 3007 3011 3013 3019 3027 3031 3039 3042 3051 3057 3056 3060 3068 3072 3078
3113 3107 3100 3093 3087 3081 3072 3064 3056 3050 3042 3035 3029 3024 3018 3014 3011 3005 3002 2997 2993 2991 2988 2988 2987 2990 2989 2991 2993 2996 3000 3005 3006 3009 3013 3016 3023 3028 3033 3035 3035 3038 3048 3055 3061 3067 3072
3111 3104 3098 3092 3085 3078 3069 3061 3054 3046 3039 3032 3026 3022 3016 3012 3007 3003 2998 2995 2993 2990 2986 2986 2987 2987 2988 2988 2991 2994 2997 3001 3003 3007 3010 3014 3020 3016 3025 3033 3039 3045 3050 3056 3061 3068 3072
3108 3102 3096 3090 3083 3076 3067 3059 3051 3044 3036 3030 3025 3020 3016 3009 3004 3000 2996 2990 2986 2987 2985 2984 2985 2986 2987 2988 2991 2993 2997 3000 3001 3004 3007 3014 3011 3020 3025 3028 3036 3042 3048 3052 3061 3065 3069
3106 3100 3094 3088 3081 3074 3066 3057 3050 3043 3035 3028 3023 3018 3014 3006 3002 2999 2993 2989 2986 2984 2984 2985 2983 2983 2986 2987 2988 2991 2995 2998 3000 3003 3005 3009 3013 3018 3021 3026 3032 3038 3044 3051 3056 3061 3066
3104 3098 3092 3086 3079 3072 3064 3056 3048 3041 3034 3026 3021 3016 3011 3006 3002 2997 2990 2988 2985 2983 2984 2987 2982 2982 2983 2984 2987 2991 2995 2999 3000 3002 3005 3008 3012 3014 3018 3022 3031 3036 3042 3049 3055 3060 3059
3102 3095 3090 3083 3078 3070 3062 3055 3046 3039 3032 3025 3018 3015 3007 3002 2999 2997 2993 2988 2985 2985 2986 2985 2979 2979 2980 2984 2985 2986 2992 2996 2999 3000 3003 3005 3009 3012 3013 3020 3031 3033 3041 3046 3051 3053 3058
3100 3093 3087 3081 3076 3068 3060 3053 3045 3038 3031 3025 3018 3015 3008 3003 3000 2995 2992 2991 2987 2987 2987 2984 2981 2979 2980 2983 2984 2984 2989 2994 2998 3000 3001 3004 3007 3009 3013 3019 3028 3034 3040 3045 3048 3051 3053
3097 3091 3085 3079 3073 3066 3059 3052 3045 3037 3031 3023 3018 3012 3008 3003 3000 2995 2992 2992 2989 2989 2993 2988 2984 2981 2981 2983 2982 2985 2988 2991 2993 2998 2998 3000 3001 3007 3010 3017 3027 3032 3033 3036 3044 3047 3047
3096 3089 3082 3076 3070 3064 3057 3051 3043 3036 3030 3023 3019 3014 3010 3007 3001 2999 2996 2994 2993 2997 2993 2987 2984 2983 2981 2982 2984 2986 2989 2988 2990 2992 2992 2997 3000 3001 3004 3009 3012 3023 3027 3030 3038 3039 3040
3094 3087 3079 3073 3067 3061 3055 3049 3042 3036 3028 3023 3018 3016 3012 3006 3003 3001 2999 2996 3001 2998 2995 2988 2982 2978 2980 2980 2982 2982 2982 2982 2981 2983 2988 2990 2992 2995 3002 3007 3015 3015 3022 3029 3030 3035 3037
3091 3084 3077 3071 3065 3059 3053 3048 3042 3035 3027 3022 3018 3015 3012 3009 3003 3001 3003 3001 3002 3000 2996 2992 2987 2984 2982 2980 2982 2982 2980 2976 2976 2976 2981 2982 2988 2994 2998 3008 3014 3014 3019 3024 3026 3039 3039
3090 3082 3075 3069 3063 3058 3052 3046 3042 3036 3027 3021 3017 3015 3013 3008 3007 3004 3001 3002 3002 3002 2999 2996 2993 2989 2987 2984 2983 2982 2982 2978 2975 2975 2980 2986 2987 2995 3001 3007 3007 3009 3017 3022 3027 3031 3033
3087 3080 3073 3066 3061 3057 3053 3047 3040 3033 3028 3022 3017 3015 3011 3008 3009 3002 3002 3001 3002 3002 3001 2999 2995 2992 2991 2988 2987 2984 2983 2981 2979 2979 2980 2983 2988 2994 3001 3005 3010 3012 3017 3020 3022 3028 3029
3085 3079 3071 3065 3060 3057 3053 3047 3040 3033 3027 3021 3016 3014 3011 3006 3006 3003 3003 3002 3001 3002 3003 3001 2999 2997 2994 2990 2989 2988 2987 2987 2985 2984 2983 2984 2990 2996 3003 3009 3010 3011 3014 3017 3019 3022 3024
3085 3078 3070 3064 3060 3056 3052 3046 3039 3034 3026 3023 3018 3015 3012 3009 3006 3005 3004 3002 3001 3000 3003 3003 3001 2999 2996 2993 2991 2991 2990 2990 2989 2988 2987 2987 2990 2993 2995 2996 3000 3006 3010 3014 3016 3020 3021
3083 3075 3069 3064 3059 3054 3048 3042 3038 3033 3028 3024 3019 3016 3012 3010 3007 3005 3006 3005 3003 3000 3002 3003 3002 3000 2999 2997 2994 2993 2993 2992 2991 2991 2991 2992 2993 2994 2995 2995 2996 3000 3005 3010 3014 3015 3017
3082 3075 3068 3063 3058 3052 3045 3040 3038 3033 3028 3026 3018 3015 3012 3010 3008 3003 3005 3005 3004 3002 3000 3001 3002 3000 2998 2996 2995 2994 2994 2994 2994 2993 2993 2993 2995 2996 2997 2998 2999 3001 3005 3009 3012 3014 3017
3082 3074 3068 3063 3056 3050 3044 3038 3034 3030 3027 3023 3020 3018 3015 3016 3010 3008 3004 3004 3003 3002 3000 2999 2999 3000 2999 2998 2997 2996 2995 2996 2996 2996 2995 2995 2996 2997 3000 3001 3002 3006 3005 3007 3009 3012 3017
3080 3073 3068 3061 3055 3050 3043 3038 3034 3029 3026 3022 3018 3014 3010 3010 3009 3007 3004 3004 3003 3002 3000 2999 2999 2999 3000 2998 2998 2998 2996 2996 2996 2995 2995 2996 2997 2998 3001 3003 3006 3004 3004 3006 3009 3012 3015
3078 3073 3067 3060 3054 3048 3042 3038 3033 3030 3026 3022 3017 3014 3010 3008 3007 3007 3004 3002 3002 3002 2999 2999 2999 2999 2999 2999 2999 2998 2998 2997 2995 2995 2996 2997 2997 2999 3001 3002 3004 3004 3004 3005 3007 3010 3011
3075 3071 3065 3060 3053 3047 3040 3034 3031 3027 3024 3020 3017 3013 3010 3007 3004 3003 3004 3001 3001 3000 3001 2999 2999 2999 3000 2999 2999 2999 2998 2998 2997 2997 2996 2997 2997 2999 3000 3001 3003 3004 3003 3004 3007 3009 3009
3072 3069 3063 3058 3051 3044 3038 3033 3029 3025 3021 3019 3015 3013 3011 3009 3006 3002 3001 3001 3000 3000 2999 2999 3000 3000 3000 2999 2999 2999 2999 2998 2998 2998 2999 2998 2999 2999 3000 3001 3002 3002 3003 3005 3008 3011 3007
3069 3066 3060 3056 3049 3042 3036 3030 3025 3023 3020 3018 3014 3010 3007 3002 3004 3001 2997 2997 2998 2997 2998 3000 3001 2999 3000 2999 2999 2999 2999 2999 2999 2999 2998 2999 2999 3000 3001 3000 3002 3001 3003 3005 3006 3006 3007
3067 3063 3057 3051 3045 3039 3034 3028 3024 3019 3016 3013 3011 3006 3003 3001 2999 2996 2991 2991 2992 2993 2994 2997 2998 2998 2999 2999 2999 2999 2999 2999 2999 2999 2999 3001 3001 3001 3001 3000 3000 3001 3003 3004 3005 3006 3007